Calicut International Airport

Jump to: basic info | weather | frequencies | runways | comments

Related pages: nearby airports | nearby navaids | notams | map

Basic information (top)

Codes: CCJ VOCL
Location: lon 11.136800, lat 75.955299, elev 342 ft / 104 m msl
Status: large_airport
Scheduled airline service: yes
Links: Wikipedia Mobile

Weather (top)

Current conditions (rec'd 2014/12/23 02:00Z):

VOCL 230200Z 00000KT 6000 FEW015 SCT090 24/22 Q1011 NOSIG

Airport forecast (rec'd 2014/12/22 18:00Z):

TAF VOCL 221500Z 2218/2324 11005KT 4000 HZ FEW015 SCT090 
      TEMPO 2223/2303 2000 BR 
      BECMG 2305/2306 6000 
      BECMG 2209/2210 27010KT 
      BECMG 2215/2216 09005KT 4000 HZ

Frequencies (top)

Verify before use: may be inaccurate or out of date.

ATIS: 127 MHz (ATIS)
TWR: 122.95 MHz (TWR)

Runways (top)

10/28: 9,383 x 150 ft (2,860 x 46 m) — paved — lighted

Latest comments (top)

Moideenkutty oorakam ( CCJ ): Calicut int airport ( Terminal,1 - ... [read]

Info: Calicut International Airport ... [read]

More... (top)

See also NOTAMs and nearby airports and navaids, or visit the Calicut International Airport page at the main OurAirports website..